カタログに戻る

COSMOS 397 DEB *

運用中LEO
NORAD 5529·DEBRIS·🇷🇺 Russia

打ち上げ Feb 25, 1971 から Baikonur Cosmodrome

Loading…

次のパス (今後24時間)

TLE

最新Source: Space-Track

元期: Sep 14, 2026, 15:23 UTC

1 05529U 71015BT  26257.64160953  .00001147  00000-0  36574-3 0  9992
2 05529  66.8398 125.8318 0045917  16.1822 344.0737 14.42718147872258

AllMySatでCOSMOS 397 DEB *をリアルタイム追跡

Download on the App Store